Regional Weather Roundup
Issued by NWS

Home | Current Version | Previous Version | Text Only | Print | Product List | Glossary On
Versions: 1 2 3 4 5 6 7 8 9 10 11 12 13 14 15 16 17 18 19 20 21 22 23 24 25 26 27 28 29 30 31 32 33 34 35 36 37 38 39 40 41 42 43 44 45 46 47 48 49 50
000
ASUS43 KOAX 110802
RWRNE

WEATHER ROUNDUP FOR NEBRASKA
NATIONAL WEATHER SERVICE OMAHA NE
200 AM CST MON DEC 11 2017

NOTES: SATELLITE DATA IS BEING USED TO AUGMENT CLOUD COVER ABOVE
       12000 FEET.
       "FAIR" INDICATES FEW OR NO CLOUDS BELOW 12,000 FEET WITH NO
       SIGNIFICANT WEATHER AND/OR OBSTRUCTIONS TO VISIBILITY.


NEZ001>004-019>022-054>056-110900-
NEBRASKA PANHANDLE

CITY           SKY/WX    TMP DP  RH WIND       PRES   REMARKS
SCOTTSBLUFF    CLOUDY    31  10  41 NW10      30.28S WCI  22
ALLIANCE       CLEAR     32  12  43 W14       30.21F WCI  22
CHADRON        CLOUDY    38  15  39 W8        30.23S WCI  32
GORDON         FAIR      43  17  35 W15       30.15S
KIMBALL        CLEAR     38   4  23 NW16      30.29S WCI  29
SIDNEY         CLOUDY    37   6  27 W15       30.26S WCI  28
$$

NEZ057>060-069>072-079>082-110900-
SOUTHWEST NEBRASKA

CITY           SKY/WX    TMP DP  RH WIND       PRES   REMARKS
NORTH PLATTE   CLOUDY    23  15  71 NW8       30.15F WCI  14
IMPERIAL       CLEAR     40   7  25 W17       30.21S WCI  31
LEXINGTON      CLOUDY    32  14  47 W12       30.12S WCI  23
MCCOOK         CLOUDY    35  11  36 W16       30.18S WCI  25
OGALLALA       CLEAR     31  11  42 SW8       30.20S WCI  24
$$

NEZ005>010-023>029-035>040-094-110900-
NORTH CENTRAL NEBRASKA

CITY           SKY/WX    TMP DP  RH WIND       PRES   REMARKS
VALENTINE      CLOUDY    41  18  39 W13       30.07S
AINSWORTH      CLEAR     43  18  37 W18       30.05S
BROKEN BOW     CLEAR     45  13  27 NW18      30.07F
O`NEILL        CLEAR     43  18  37 W14       29.99F
ORD            PTCLDY    33  16  49 N6        30.04S WCI  28
THEDFORD       CLEAR     40  15  36 W13       30.11S WCI  33
$$

NEZ041-046>049-061>064-073>077-083>087-110900-
SOUTH CENTRAL NEBRASKA

CITY           SKY/WX    TMP DP  RH WIND       PRES   REMARKS
GRAND ISLAND   CLOUDY    34  15  46 W12       30.07S WCI  25
AURORA         CLEAR     37  14  38 W15       30.05S WCI  28
HASTINGS       CLEAR     38  12  34 W14       30.07F WCI  30
HEBRON         CLEAR     36  15  42 W6        30.07S WCI  31
HOLDREGE       CLOUDY    38  13  35 W14       30.11S WCI  30
KEARNEY        CLEAR     42  11  28 W12       30.10S
$$

NEZ011>018-030>034-042>045-110900-
NORTHEAST NEBRASKA

CITY           SKY/WX    TMP DP  RH WIND       PRES   REMARKS
NORFOLK        PTCLDY    39  19  44 W10       29.95F WCI  32
ALBION         PTCLDY    44  17  33 NW8       29.99F
BLAIR          CLOUDY    40  22  47 SW7       29.95F
COLUMBUS       CLOUDY    37  17  44 SW7       30.01F WCI  32
FREMONT        CLOUDY    31  20  63 W3        29.97F
TEKAMAH        MOCLDY    27  16  63 S7        29.96F WCI  19
WAYNE          PTCLDY    42  16  35 W12       29.94F
$$

NEZ050>053-065>068-078-088>093-110900-
SOUTHEAST NEBRASKA

CITY           SKY/WX    TMP DP  RH WIND       PRES   REMARKS
LINCOLN        PTCLDY    38  17  42 W5        30.02F WCI  34
OMAHA EPPLEY   CLOUDY    33  23  66 SE7       29.97F WCI  27
BEATRICE       CLOUDY    33  18  53 W5        30.04S WCI  28
FALLS CITY     CLEAR     28  18  66 CALM      30.01F
NEBRASKA CITY  PTCLDY    36  19  51 W12       29.99F WCI  28
PLATTSMOUTH    MOCLDY    41  20  41 W13       29.98F
$$

NEZ044-045-051>053-067-110900-
OMAHA AREA

CITY           SKY/WX    TMP DP  RH WIND       PRES   REMARKS
OMAHA EPPLEY   CLOUDY    33  23  66 SE7       29.97F WCI  27
BLAIR          CLOUDY    40  22  47 SW7       29.95F
FREMONT        CLOUDY    31  20  63 W3        29.97F
MILLARD        PTCLDY    34  25  69 W3        29.99F
OFFUTT AFB     CLOUDY    29  23  77 CALM      29.98F
PLATTSMOUTH    MOCLDY    41  20  41 W13       29.98F
WAHOO          FAIR      40  19  41 SW5       29.98F
$$



USA.gov is the U.S. government's official web portal to all federal, state and local government web resources and services.